Time,TemperatureF,DewpointF,PressureIn,WindDirection,WindDirectionDegrees,WindSpeedMPH,WindSpeedGustMPH,Humidity,HourlyPrecipIn,Conditions,Clouds,dailyrainin,SoftwareType,DateUTC
2013-03-27 00:01:00,25.0,9.0,-100.00,NW,308,0.0,1.0,50,0.00,,,-99.99,,2013-03-27 06:01:00,
2013-03-27 00:11:00,25.0,9.0,-100.00,WNW,289,0.0,0.0,50,0.00,,,-99.99,,2013-03-27 06:11:00,
2013-03-27 00:22:00,25.0,9.0,-100.00,West,268,0.0,0.0,51,0.00,,,-99.99,,2013-03-27 06:22:00,
2013-03-27 00:31:00,25.0,10.0,-100.00,West,267,0.0,0.0,51,0.00,,,-99.99,,2013-03-27 06:31:00,
2013-03-27 00:42:00,24.0,10.0,-100.00,West,275,2.0,4.0,54,0.00,,,-99.99,,2013-03-27 06:42:00,
2013-03-27 00:51:00,24.0,10.0,-100.00,WNW,289,2.0,4.0,53,0.00,,,-99.99,,2013-03-27 06:51:00,
2013-03-27 01:01:00,24.0,10.0,-100.00,WNW,289,2.0,4.0,54,0.00,,,-99.99,,2013-03-27 07:01:00,
2013-03-27 01:11:00,23.0,10.0,-100.00,West,281,2.0,4.0,56,0.00,,,-99.99,,2013-03-27 07:11:00,
2013-03-27 01:21:00,24.0,10.0,-100.00,West,263,2.0,3.0,55,0.00,,,-99.99,,2013-03-27 07:21:00,
2013-03-27 01:31:00,23.0,10.0,-100.00,West,272,1.0,4.0,57,0.00,,,-99.99,,2013-03-27 07:31:00,
2013-03-27 01:41:00,22.0,10.0,-100.00,WNW,282,0.0,3.0,58,0.00,,,-99.99,,2013-03-27 07:41:00,
2013-03-27 01:53:00,23.0,10.0,-100.00,WSW,254,0.0,1.0,57,0.00,,,-99.99,,2013-03-27 07:53:00,
2013-03-27 02:02:00,22.0,10.0,-100.00,West,260,1.0,4.0,58,0.00,,,-99.99,,2013-03-27 08:02:00,
2013-03-27 02:21:00,21.0,10.0,-100.00,West,280,2.0,4.0,61,0.00,,,-99.99,,2013-03-27 08:21:00,
2013-03-27 02:31:00,21.0,10.0,-100.00,West,268,2.0,4.0,62,0.00,,,-99.99,,2013-03-27 08:31:00,
2013-03-27 02:42:00,22.0,10.0,-100.00,West,274,2.0,4.0,61,0.00,,,-99.99,,2013-03-27 08:42:00,
2013-03-27 02:51:00,22.0,11.0,-100.00,West,271,3.0,5.0,62,0.00,,,-99.99,,2013-03-27 08:51:00,
2013-03-27 03:01:00,22.0,10.0,-100.00,West,270,3.0,6.0,61,0.00,,,-99.99,,2013-03-27 09:01:00,
2013-03-27 03:11:00,22.0,11.0,-100.00,West,270,4.0,7.0,61,0.00,,,-99.99,,2013-03-27 09:11:00,
2013-03-27 03:21:00,22.0,11.0,-100.00,West,270,4.0,6.0,61,0.00,,,-99.99,,2013-03-27 09:21:00,
2013-03-27 03:32:00,22.0,11.0,-100.00,West,265,4.0,5.0,62,0.00,,,-99.99,,2013-03-27 09:32:00,
2013-03-27 03:42:00,23.0,11.0,-100.00,WSW,258,4.0,6.0,61,0.00,,,-99.99,,2013-03-27 09:42:00,
2013-03-27 03:52:00,23.0,12.0,-100.00,West,260,4.0,7.0,63,0.00,,,-99.99,,2013-03-27 09:52:00,
2013-03-27 04:02:00,23.0,13.0,-100.00,West,268,6.0,9.0,66,0.00,,,-99.99,,2013-03-27 10:02:00,
2013-03-27 04:12:00,23.0,13.0,-100.00,West,267,7.0,10.0,67,0.00,,,-99.99,,2013-03-27 10:12:00,
2013-03-27 04:22:00,23.0,14.0,-100.00,WSW,254,9.0,12.0,69,0.00,,,-99.99,,2013-03-27 10:22:00,
2013-03-27 04:31:00,22.0,14.0,-100.00,WSW,256,11.0,13.0,69,0.00,,,-99.99,,2013-03-27 10:31:00,
2013-03-27 04:41:00,22.0,14.0,-100.00,WSW,257,11.0,14.0,71,0.00,,,-99.99,,2013-03-27 10:41:00,
2013-03-27 04:52:00,21.0,13.0,-100.00,West,267,6.0,11.0,73,0.00,,,-99.99,,2013-03-27 10:52:00,
2013-03-27 05:02:00,20.0,14.0,-100.00,West,275,3.0,6.0,75,0.00,,,-99.99,,2013-03-27 11:02:00,
2013-03-27 05:11:00,20.0,14.0,-100.00,West,277,4.0,7.0,76,0.00,,,-99.99,,2013-03-27 11:11:00,
2013-03-27 05:21:00,20.0,15.0,-100.00,WSW,256,3.0,7.0,79,0.00,,,-99.99,,2013-03-27 11:21:00,
2013-03-27 05:31:00,21.0,15.0,-100.00,WNW,284,6.0,10.0,76,0.00,,,-99.99,,2013-03-27 11:31:00,
2013-03-27 05:42:00,22.0,15.0,-100.00,West,271,6.0,12.0,77,0.00,,,-99.99,,2013-03-27 11:42:00,
2013-03-27 05:53:00,-999.0,-99.9,-100.00,West,270,7.0,13.0,-999,-99.99,,,-99.99,,2013-03-27 11:53:00,
2013-03-27 06:01:00,22.0,16.0,-100.00,West,272,9.0,14.0,80,0.00,,,-99.99,,2013-03-27 12:01:00,
2013-03-27 06:12:00,-999.0,-99.9,-100.00,West,272,9.0,14.0,-999,-99.99,,,-99.99,,2013-03-27 12:12:00,
2013-03-27 06:22:00,22.0,16.0,-100.00,WSW,256,11.0,14.0,79,0.00,,,-99.99,,2013-03-27 12:22:00,
2013-03-27 06:31:00,22.0,16.0,-100.00,WSW,246,11.0,14.0,79,0.00,,,-99.99,,2013-03-27 12:31:00,
2013-03-27 06:42:00,22.0,17.0,-100.00,WSW,243,9.0,13.0,80,0.00,,,-99.99,,2013-03-27 12:42:00,
2013-03-27 06:51:00,22.0,17.0,-100.00,WSW,239,9.0,12.0,80,0.00,,,-99.99,,2013-03-27 12:51:00,
2013-03-27 07:01:00,22.0,17.0,-100.00,WSW,237,10.0,12.0,80,0.00,,,-99.99,,2013-03-27 13:01:00,
2013-03-27 07:11:00,22.0,17.0,-100.00,WSW,243,10.0,12.0,80,0.00,,,-99.99,,2013-03-27 13:11:00,
2013-03-27 07:21:00,22.0,17.0,-100.00,WSW,250,9.0,12.0,81,0.00,,,-99.99,,2013-03-27 13:21:00,
2013-03-27 07:32:00,21.0,17.0,-100.00,WSW,256,9.0,12.0,81,0.00,,,-99.99,,2013-03-27 13:32:00,
2013-03-27 07:41:00,22.0,17.0,-100.00,WSW,253,9.0,12.0,81,0.00,,,-99.99,,2013-03-27 13:41:00,
2013-03-27 07:52:00,22.0,17.0,-100.00,WSW,253,9.0,13.0,80,0.00,,,-99.99,,2013-03-27 13:52:00,
2013-03-27 08:01:00,22.0,17.0,-100.00,West,261,7.0,11.0,80,0.00,,,-99.99,,2013-03-27 14:01:00,
2013-03-27 08:11:00,22.0,17.0,-100.00,West,265,7.0,11.0,80,0.00,,,-99.99,,2013-03-27 14:11:00,
2013-03-27 08:21:00,22.0,17.0,-100.00,West,260,9.0,12.0,79,0.00,,,-99.99,,2013-03-27 14:21:00,
2013-03-27 08:31:00,22.0,17.0,-100.00,West,268,7.0,10.0,78,0.00,,,-99.99,,2013-03-27 14:31:00,
2013-03-27 08:41:00,23.0,17.0,-100.00,West,272,7.0,10.0,77,0.00,,,-99.99,,2013-03-27 14:41:00,
2013-03-27 08:51:00,24.0,17.0,-100.00,West,274,7.0,11.0,76,0.00,,,-99.99,,2013-03-27 14:51:00,
2013-03-27 09:01:00,24.0,17.0,-100.00,West,271,7.0,11.0,75,0.00,,,-99.99,,2013-03-27 15:01:00,
2013-03-27 09:11:00,25.0,17.0,-100.00,West,272,7.0,11.0,73,0.00,,,-99.99,,2013-03-27 15:11:00,
2013-03-27 09:21:00,25.0,18.0,-100.00,West,271,7.0,11.0,72,0.00,,,-99.99,,2013-03-27 15:21:00,
2013-03-27 09:32:00,26.0,17.0,-100.00,West,272,6.0,11.0,71,0.00,,,-99.99,,2013-03-27 15:32:00,
2013-03-27 09:42:00,26.0,18.0,-100.00,West,268,7.0,11.0,71,0.00,,,-99.99,,2013-03-27 15:42:00,
2013-03-27 09:52:00,27.0,18.0,-100.00,West,275,7.0,12.0,69,0.00,,,-99.99,,2013-03-27 15:52:00,
2013-03-27 10:02:00,27.0,17.0,-100.00,West,267,8.0,12.0,67,0.00,,,-99.99,,2013-03-27 16:02:00,
2013-03-27 10:12:00,27.0,18.0,-100.00,West,267,9.0,13.0,66,0.00,,,-99.99,,2013-03-27 16:12:00,
2013-03-27 10:22:00,28.0,17.0,-100.00,West,264,12.0,20.0,64,0.00,,,-99.99,,2013-03-27 16:22:00,
2013-03-27 10:32:00,28.0,17.0,-100.00,West,264,14.0,21.0,63,0.00,,,-99.99,,2013-03-27 16:32:00,
2013-03-27 10:41:00,29.0,17.0,-100.00,West,263,13.0,20.0,61,0.00,,,-99.99,,2013-03-27 16:41:00,
2013-03-27 10:52:00,30.0,17.0,-100.00,West,272,11.0,17.0,60,0.00,,,-99.99,,2013-03-27 16:52:00,
2013-03-27 11:02:00,29.0,18.0,-100.00,West,278,10.0,17.0,61,0.00,,,-99.99,,2013-03-27 17:02:00,
2013-03-27 11:11:00,30.0,18.0,-100.00,West,280,11.0,17.0,58,0.00,,,-99.99,,2013-03-27 17:11:00,
2013-03-27 11:22:00,31.0,18.0,-100.00,West,275,12.0,19.0,60,0.00,,,-99.99,,2013-03-27 17:22:00,
2013-03-27 11:31:00,31.0,19.0,-100.00,West,275,13.0,19.0,60,0.00,,,-99.99,,2013-03-27 17:31:00,
2013-03-27 11:44:00,32.0,18.0,-100.00,West,275,12.0,19.0,56,0.00,,,-99.99,,2013-03-27 17:44:00,
2013-03-27 11:53:00,-999.0,-99.9,-100.00,West,275,12.0,21.0,-999,-99.99,,,-99.99,,2013-03-27 17:53:00,
2013-03-27 12:01:00,33.0,18.0,-100.00,West,277,13.0,21.0,55,0.00,,,-99.99,,2013-03-27 18:01:00,
2013-03-27 12:11:00,33.0,18.0,-100.00,West,275,14.0,21.0,54,0.00,,,-99.99,,2013-03-27 18:11:00,
2013-03-27 12:22:00,33.0,17.0,-100.00,West,275,14.0,22.0,51,0.00,,,-99.99,,2013-03-27 18:22:00,
2013-03-27 12:31:00,34.0,18.0,-100.00,West,272,13.0,20.0,52,0.00,,,-99.99,,2013-03-27 18:31:00,
2013-03-27 12:42:00,34.0,18.0,-100.00,WSW,257,16.0,26.0,52,0.00,,,-99.99,,2013-03-27 18:42:00,
2013-03-27 12:52:00,35.0,17.0,-100.00,West,261,17.0,26.0,49,0.00,,,-99.99,,2013-03-27 18:52:00,
2013-03-27 13:01:00,35.0,18.0,-100.00,WSW,248,16.0,25.0,50,0.00,,,-99.99,,2013-03-27 19:01:00,
2013-03-27 13:11:00,36.0,17.0,-100.00,WSW,253,16.0,22.0,46,0.00,,,-99.99,,2013-03-27 19:11:00,
2013-03-27 13:21:00,36.0,18.0,-100.00,West,263,13.0,21.0,47,0.00,,,-99.99,,2013-03-27 19:21:00,
2013-03-27 13:31:00,38.0,18.0,-100.00,West,274,11.0,22.0,45,0.00,,,-99.99,,2013-03-27 19:31:00,
2013-03-27 13:42:00,36.0,18.0,-100.00,West,274,10.0,22.0,47,0.00,,,-99.99,,2013-03-27 19:42:00,
2013-03-27 13:51:00,38.0,19.0,-100.00,West,271,11.0,20.0,45,0.00,,,-99.99,,2013-03-27 19:51:00,
2013-03-27 14:01:00,38.0,19.0,-100.00,West,261,16.0,25.0,47,0.00,,,-99.99,,2013-03-27 20:01:00,
2013-03-27 14:11:00,37.0,18.0,-100.00,West,267,14.0,22.0,45,0.00,,,-99.99,,2013-03-27 20:11:00,
2013-03-27 14:21:00,37.0,19.0,-100.00,West,277,12.0,22.0,48,0.00,,,-99.99,,2013-03-27 20:21:00,
2013-03-27 14:31:00,38.0,19.0,-100.00,West,275,12.0,22.0,44,0.00,,,-99.99,,2013-03-27 20:31:00,
2013-03-27 14:42:00,38.0,18.0,-100.00,West,270,13.0,21.0,44,0.00,,,-99.99,,2013-03-27 20:42:00,
2013-03-27 14:51:00,40.0,18.0,-100.00,West,270,14.0,22.0,42,0.00,,,-99.99,,2013-03-27 20:51:00,
2013-03-27 15:01:00,39.0,19.0,-100.00,West,265,17.0,29.0,44,0.00,,,-99.99,,2013-03-27 21:01:00,
2013-03-27 15:11:00,40.0,19.0,-100.00,West,265,16.0,27.0,43,0.00,,,-99.99,,2013-03-27 21:11:00,
2013-03-27 15:23:00,-999.0,-99.9,-100.00,West,267,15.0,25.0,-999,-99.99,,,-99.99,,2013-03-27 21:23:00,
2013-03-27 15:31:00,39.0,18.0,-100.00,West,261,17.0,29.0,43,0.00,,,-99.99,,2013-03-27 21:31:00,
2013-03-27 15:42:00,37.0,19.0,-100.00,West,264,14.0,24.0,48,0.00,,,-99.99,,2013-03-27 21:42:00,
2013-03-27 16:02:00,37.0,19.0,-100.00,West,268,17.0,24.0,47,0.00,,,-99.99,,2013-03-27 22:02:00,
2013-03-27 16:12:00,37.0,19.0,-100.00,West,268,17.0,24.0,47,0.00,,,-99.99,,2013-03-27 22:12:00,
2013-03-27 16:22:00,37.0,18.0,-100.00,West,270,16.0,24.0,46,0.00,,,-99.99,,2013-03-27 22:22:00,
2013-03-27 16:32:00,37.0,18.0,-100.00,West,272,16.0,30.0,45,0.00,,,-99.99,,2013-03-27 22:32:00,
2013-03-27 16:42:00,39.0,18.0,-100.00,West,268,14.0,23.0,43,0.00,,,-99.99,,2013-03-27 22:42:00,
2013-03-27 16:52:00,39.0,19.0,-100.00,WSW,258,14.0,22.0,44,0.00,,,-99.99,,2013-03-27 22:52:00,
2013-03-27 17:01:00,36.0,19.0,-100.00,West,268,11.0,19.0,48,0.00,,,-99.99,,2013-03-27 23:01:00,
2013-03-27 17:11:00,36.0,18.0,-100.00,West,263,12.0,23.0,46,0.00,,,-99.99,,2013-03-27 23:11:00,
2013-03-27 17:21:00,38.0,18.0,-100.00,West,263,14.0,21.0,44,0.00,,,-99.99,,2013-03-27 23:21:00,
2013-03-27 17:31:00,38.0,18.0,-100.00,West,260,14.0,24.0,44,0.00,,,-99.99,,2013-03-27 23:31:00,
2013-03-27 17:42:00,38.0,18.0,-100.00,WSW,258,16.0,22.0,45,0.00,,,-99.99,,2013-03-27 23:42:00,
2013-03-27 17:51:00,36.0,19.0,-100.00,West,260,15.0,22.0,48,0.00,,,-99.99,,2013-03-27 23:51:00,
2013-03-27 18:01:00,36.0,19.0,-100.00,West,260,14.0,21.0,50,0.00,,,-99.99,,2013-03-28 00:01:00,
2013-03-27 18:11:00,36.0,19.0,-100.00,West,263,13.0,19.0,50,0.00,,,-99.99,,2013-03-28 00:11:00,
2013-03-27 18:21:00,37.0,20.0,-100.00,West,260,16.0,25.0,49,0.00,,,-99.99,,2013-03-28 00:21:00,
2013-03-27 18:31:00,37.0,20.0,-100.00,West,264,14.0,21.0,50,0.00,,,-99.99,,2013-03-28 00:31:00,
2013-03-27 18:43:00,-999.0,-99.9,-100.00,West,268,14.0,21.0,-999,-99.99,,,-99.99,,2013-03-28 00:43:00,
2013-03-27 18:51:00,36.0,21.0,-100.00,West,267,12.0,21.0,54,0.00,,,-99.99,,2013-03-28 00:51:00,
2013-03-27 19:01:00,35.0,21.0,-100.00,West,270,12.0,19.0,56,0.00,,,-99.99,,2013-03-28 01:01:00,
2013-03-27 19:11:00,34.0,21.0,-100.00,West,265,12.0,19.0,57,0.00,,,-99.99,,2013-03-28 01:11:00,
2013-03-27 19:21:00,34.0,22.0,-100.00,West,268,11.0,21.0,60,0.00,,,-99.99,,2013-03-28 01:21:00,
2013-03-27 19:31:00,33.0,21.0,-100.00,West,264,12.0,21.0,60,0.00,,,-99.99,,2013-03-28 01:31:00,
2013-03-27 19:42:00,32.0,22.0,-100.00,West,265,12.0,19.0,64,0.00,,,-99.99,,2013-03-28 01:42:00,
2013-03-27 19:53:00,-999.0,-99.9,-100.00,West,265,10.0,17.0,-999,-99.99,,,-99.99,,2013-03-28 01:53:00,
2013-03-27 20:01:00,31.0,22.0,-100.00,West,268,11.0,18.0,69,0.00,,,-99.99,,2013-03-28 02:01:00,
2013-03-27 20:11:00,31.0,22.0,-100.00,West,267,9.0,18.0,70,0.00,,,-99.99,,2013-03-28 02:11:00,
2013-03-27 20:21:00,31.0,22.0,-100.00,West,260,13.0,20.0,69,0.00,,,-99.99,,2013-03-28 02:21:00,
2013-03-27 20:31:00,30.0,22.0,-100.00,West,264,11.0,16.0,72,0.00,,,-99.99,,2013-03-28 02:31:00,
2013-03-27 20:41:00,30.0,22.0,-100.00,West,264,11.0,16.0,72,0.00,,,-99.99,,2013-03-28 02:41:00,
2013-03-27 20:51:00,30.0,22.0,-100.00,West,264,11.0,16.0,72,0.00,,,-99.99,,2013-03-28 02:51:00,
2013-03-27 21:01:00,30.0,22.0,-100.00,WSW,257,13.0,19.0,71,0.00,,,-99.99,,2013-03-28 03:01:00,
2013-03-27 21:11:00,30.0,22.0,-100.00,WSW,256,13.0,19.0,72,0.00,,,-99.99,,2013-03-28 03:11:00,
2013-03-27 21:21:00,31.0,22.0,-100.00,WSW,253,14.0,23.0,70,0.00,,,-99.99,,2013-03-28 03:21:00,
2013-03-27 21:32:00,30.0,22.0,-100.00,WSW,256,16.0,24.0,71,0.00,,,-99.99,,2013-03-28 03:32:00,
2013-03-27 21:42:00,29.0,22.0,-100.00,WSW,257,15.0,23.0,72,0.00,,,-99.99,,2013-03-28 03:42:00,
2013-03-27 21:52:00,29.0,22.0,-100.00,WSW,258,16.0,22.0,73,0.00,,,-99.99,,2013-03-28 03:52:00,
2013-03-27 22:02:00,29.0,22.0,-100.00,West,261,15.0,21.0,73,0.00,,,-99.99,,2013-03-28 04:02:00,
2013-03-27 22:12:00,29.0,22.0,-100.00,West,264,12.0,18.0,75,0.00,,,-99.99,,2013-03-28 04:12:00,
2013-03-27 22:22:00,28.0,21.0,-100.00,West,267,7.0,15.0,76,0.00,,,-99.99,,2013-03-28 04:22:00,
2013-03-27 22:32:00,28.0,22.0,-100.00,West,268,9.0,14.0,76,0.00,,,-99.99,,2013-03-28 04:32:00,
2013-03-27 22:42:00,28.0,21.0,-100.00,West,270,8.0,13.0,76,0.00,,,-99.99,,2013-03-28 04:42:00,
2013-03-27 22:52:00,28.0,22.0,-100.00,West,271,7.0,12.0,77,0.00,,,-99.99,,2013-03-28 04:52:00,
2013-03-27 23:02:00,28.0,22.0,-100.00,West,271,7.0,12.0,79,0.00,,,-99.99,,2013-03-28 05:02:00,
2013-03-27 23:11:00,28.0,22.0,-100.00,West,272,9.0,16.0,76,0.00,,,-99.99,,2013-03-28 05:11:00,
2013-03-27 23:21:00,28.0,22.0,-100.00,West,272,9.0,16.0,76,0.00,,,-99.99,,2013-03-28 05:21:00,
2013-03-27 23:31:00,28.0,22.0,-100.00,West,271,9.0,13.0,78,0.00,,,-99.99,,2013-03-28 05:31:00,
2013-03-27 23:42:00,27.0,22.0,-100.00,West,265,9.0,14.0,80,0.00,,,-99.99,,2013-03-28 05:42:00,
2013-03-27 23:51:00,27.0,21.0,-100.00,West,265,9.0,14.0,77,-99.99,,,-99.99,,2013-03-28 05:51:00,